Retour au catalogue

STARLINK-35107

ActifCommunicationsVLEO
NORAD 65464·PAYLOAD·🇺🇸 United States

Lancé Sep 3, 2025 depuis Cape Canaveral Space Force Station

Loading…

Prochains Passages (prochaines 24 heures)

TLE

FraisSource: CelesTrak SupGP

Époque: Sep 15, 2026, 02:26 UTC

1 65464C 25195G   26258.10187500  .00003213  00000+0  10336-3 0  2584
2 65464  53.1575  96.5317 0001523  97.3424 119.7758 15.31688178    11

Suivez STARLINK-35107 en temps réel avec AllMySat

Download on the App Store